Location: Goettingen
(51.5300°N, 9.9433°E)
Time: 15:14:48
(UTC+02:00)

ISS - Pass Details

Date: 16 October 2017
Orbit: 401 x 408 km, 51.6° (Epoch: 18 October)

Event Time Altitude Azimuth Distance (km) Brightness Sun altitude
Rises 19:05:09 0° 280° (W) 2,324 1.8 -7.1°
Reaches altitude 10° 19:07:53 10° 255° (WSW) 1,461 0.7 -7.5°
Maximum altitude 19:09:47 15° 219° (SW) 1,207 -0.8 -7.8°
Drops below altitude 10° 19:11:43 10° 183° (S) 1,458 -0.9 -8.1°
Sets 19:14:26 0° 159° (SSE) 2,315 -0.2 -8.5°
